[[{"header":{"parameterUnit":"m.s-1","parameterCategory":1,"la1":30.2992,"la2":30.254,"lo1":-89.0895,"lo2":-89.0443,"dy":0.0025,"dx":0.0025,"nx":19,"ny":19,"refTime":"2026-05-17T09:00:00:Z","depth":0,"parameterNumber":2,"parameterNumberName":"U-component_of_WINDS"},"data":[0,0,0,-5.0817,-5.082,-5.0957,-5.0957,-5.1151,-5.1153,0,0,0,0,0,0,0,0,0,0,0,-5.0784,-5.0786,-5.0816,-5.082,-5.0957,-5.0957,-5.1151,-5.1153,0,0,0,0,0,0,0,0,0,0,0,-5.0783,-5.0785,-5.0787,-5.082,-5.0957,-5.0957,-5.115,-5.1041,0,0,0,0,0,0,0,0,0,0,-5.0905,-5.0882,-5.0785,-5.0787,-5.0821,-5.0957,-5.0958,-5.1036,-5.1048,-5.1096,0,-5.1138,0,-5.1149,-5.1167,-5.1168,0,0,0,-5.0815,-5.0872,-5.0901,-5.0787,-5.0823,-5.0957,-5.0894,-5.1042,-5.1056,-5.1113,-5.1141,-5.1148,-5.1152,-5.1168,-5.1169,-5.1458,-5.1459,0,0,-5.0807,-5.0814,-5.0892,-5.0911,-5.0888,-5.0889,-5.0898,-5.105,-5.1083,-5.1142,-5.1152,-5.1155,-5.117,-5.1171,-5.1456,-5.1458,0,0,0,-5.0789,-5.0809,-5.0834,-5.0903,-5.0926,-5.0893,-5.0903,-5.1076,-5.1084,-5.1154,-5.1157,-5.1171,-5.1173,-5.1455,-5.1457,-5.1541,0,0,0,-5.0784,-5.0798,-5.0831,-5.0837,-5.0924,-5.1002,-5.0926,-5.1073,-5.109,-5.1156,-5.1171,-5.1175,-5.1453,-5.1456,-5.1535,-5.1579,0,0,0,-5.0773,-5.0797,-5.0819,-5.0837,-5.0896,-5.1,-5.1016,-5.1077,-5.1093,-5.1168,-5.1176,-5.1452,-5.1455,-5.1529,-5.157,-5.1656,0,0,0,-5.0763,-5.0893,-5.082,-5.0968,-5.0894,-5.105,-5.1015,-5.1131,-5.1206,-5.1172,-5.1453,-5.1457,-5.1527,-5.1565,-5.165,-5.1728,-5.1762,0,0,-5.0931,-5.0914,-5.1,-5.0939,-5.1108,-5.1029,-5.1212,-5.1275,-5.1278,-5.1399,-5.1406,-5.1537,-5.157,-5.1655,-5.1949,-5.1975,0,0,0,-5.1056,-5.1118,-5.1161,-5.1231,-5.1281,-5.1328,-5.1362,-5.1386,-5.1487,-5.134,-5.1591,-5.1611,-5.1661,-5.1698,-5.172,-5.1763,-5.1474,-5.1474,-5.1474,-5.1303,-5.1298,-5.144,-5.1451,-5.152,-5.1554,-5.161,-5.1648,-5.1624,-5.1684,-5.1719,-5.1898,-5.1941,-5.1958,-5.2002,-5.1761,-5.1762,-5.1762,-5.1762,-5.1549,-5.1635,-5.1599,-5.1724,-5.1719,-5.1825,-5.1864,-5.1844,-5.1943,-5.1871,-5.1915,-5.1835,-5.1987,-5.2026,-5.1768,-5.1767,-5.1766,-5.1766,-5.1765,-5.1709,-5.1749,-5.1775,-5.1875,-5.1955,-5.1963,-5.206,-5.2052,-5.2047,-5.209,-5.2126,-5.2125,-5.2121,-5.2108,-5.2109,-5.2109,-5.211,-5.211,-5.2111,-5.1864,-5.189,-5.1971,-5.2035,-5.2079,-5.2137,-5.2174,-5.2218,-5.2266,-5.2253,-5.2253,-5.2223,-5.2003,-5.1947,-5.212,-5.2118,-5.2117,-5.2116,-5.2116,-5.2113,-5.2055,-5.218,-5.2224,-5.2299,-5.2379,-5.2368,-5.246,-5.2496,-5.2544,-5.2505,-5.2344,-5.2326,-5.2309,-5.2262,-5.2506,-5.2506,-5.2506,-5.2506,-5.2247,-5.2237,-5.2362,-5.2433,-5.2503,-5.2506,-5.2649,-5.268,-5.2704,-5.2726,-5.269,-5.2629,-5.2611,-5.2604,-5.258,-5.2536,-5.2844,-5.2844,-5.2845,-5.2399,-5.2395,-5.2517,-5.2536,-5.2595,-5.2647,-5.2782,-5.2867,-5.2882,-5.2858,-5.2744,-5.2729,-5.263,-5.2598,-5.2569,-5.2531,-5.2452,0,0]},{"header":{"parameterUnit":"m.s-1","parameterCategory":1,"la1":30.2992,"la2":30.254,"lo1":-89.0895,"lo2":-89.0443,"dy":0.0025,"dx":0.0025,"nx":19,"ny":19,"refTime":"2026-05-17T09:00:00:Z","depth":0,"parameterNumber":3,"parameterNumberName":"V-component_of_WINDS"},"data":[0,0,0,3.1594,3.1595,3.168,3.1681,3.1769,3.177,0,0,0,0,0,0,0,0,0,0,0,3.1557,3.1557,3.1594,3.1595,3.168,3.1681,3.1769,3.177,0,0,0,0,0,0,0,0,0,0,0,3.1557,3.1557,3.1557,3.1596,3.168,3.1681,3.1769,3.1712,0,0,0,0,0,0,0,0,0,0,3.1633,3.1588,3.1557,3.1557,3.1596,3.168,3.1681,3.171,3.1715,3.1722,0,3.1726,0,3.1749,3.1774,3.1775,0,0,0,3.1604,3.1583,3.1616,3.1557,3.1597,3.168,3.1644,3.1713,3.172,3.173,3.1727,3.1731,3.175,3.1775,3.1775,3.1786,3.1786,0,0,3.1599,3.1566,3.1611,3.162,3.1606,3.1642,3.1647,3.1717,3.1712,3.1727,3.1733,3.1752,3.1775,3.1776,3.1786,3.1786,0,0,0,3.158,3.1562,3.1594,3.1616,3.1632,3.1644,3.165,3.1709,3.1722,3.1734,3.1753,3.1776,3.1777,3.1787,3.1786,3.1737,0,0,0,3.1578,3.1551,3.1592,3.1572,3.1631,3.1672,3.1639,3.1717,3.1726,3.1752,3.1776,3.1777,3.1787,3.1787,3.1739,3.172,0,0,0,3.1555,3.1549,3.1557,3.157,3.1606,3.1671,3.1689,3.172,3.1737,3.1775,3.1778,3.1788,3.1787,3.1741,3.1723,3.1714,0,0,0,3.1522,3.1512,3.1556,3.1551,3.1605,3.164,3.1689,3.1717,3.1743,3.1776,3.1787,3.1786,3.1742,3.1725,3.1715,3.17,3.1691,0,0,3.1491,3.1507,3.1507,3.1548,3.1567,3.163,3.1641,3.1697,3.1731,3.1766,3.1766,3.1739,3.1724,3.1714,3.1645,3.1637,0,0,0,3.1486,3.1485,3.1497,3.1521,3.1563,3.1598,3.1655,3.1675,3.1706,3.1742,3.1733,3.1725,3.1721,3.1715,3.1708,3.1707,3.1782,3.1782,3.1782,3.1394,3.1438,3.1441,3.1494,3.1516,3.1575,3.1597,3.1634,3.1672,3.1669,3.168,3.1633,3.1625,3.162,3.1618,3.1674,3.1674,3.1674,3.1674,3.1353,3.136,3.141,3.143,3.1476,3.1494,3.1549,3.1575,3.1598,3.1628,3.1627,3.1657,3.161,3.1611,3.1671,3.1671,3.1672,3.1672,3.1672,3.13,3.1311,3.1336,3.1374,3.1398,3.1452,3.1471,3.1512,3.155,3.1548,3.1565,3.1566,3.1573,3.1553,3.1553,3.1553,3.1553,3.1552,3.1552,3.1236,3.1265,3.1277,3.1319,3.134,3.1371,3.1428,3.1449,3.1482,3.151,3.1511,3.1549,3.1597,3.1609,3.155,3.1551,3.1551,3.1551,3.1551,3.1181,3.12,3.1218,3.1238,3.1291,3.1312,3.1363,3.1401,3.1424,3.1432,3.147,3.1498,3.1518,3.1524,3.1534,3.146,3.146,3.146,3.146,3.1138,3.1151,3.1179,3.1208,3.1241,3.1288,3.1307,3.135,3.1398,3.1415,3.1431,3.1447,3.1451,3.1469,3.1476,3.1486,3.1401,3.1401,3.1401,3.1107,3.1125,3.1134,3.1181,3.1225,3.1261,3.128,3.1311,3.1369,3.14,3.1429,3.1431,3.1458,3.1465,3.1498,3.1508,3.1528,0,0]}]]